This demonstration page uses our WeatherBlox Daily Observations layout. Learn more.

Left ArrowRight Arrow

31.31129, -92.44514

Hourly Observations for August 4, 2018

Temp ( °F °C ) Dew Point ( °F °C ) Humidity (%) Winds ( mph kmh ) Pressure ( in mb ) Visibility ( mi km ) Precip ( " mm )
12:53 am 00:53 Clear 71 21.7 69 20.6 94 94 Calm 30.02 1017 9 14 0.00 0.00
1:53 am 01:53 Clear with Mist and Fog 70 21.1 69 20.6 97 97 Calm 30.01 1016 6 10 0.00 0.00
2:53 am 02:53 Clear 70 21.1 69 20.6 97 97 Calm 30.02 1017 8 13 0.00 0.00
3:53 am 03:53 Clear 70 21.1 69 20.6 97 97 Calm 30.03 1017 7 11 0.00 0.00
4:53 am 04:53 Clear 71 21.7 68 20 90 90 Calm 30.03 1017 9 14 0.00 0.00
5:53 am 05:53 Clear 71 21.7 69 20.6 94 94 Calm 30.05 1018 9 14 0.00 0.00
6:53 am 06:53 Sunny 71 21.7 69 20.6 94 94 Calm 30.06 1018 7 11 0.00 0.00
7:53 am 07:53 Sunny 74 23.3 71 21.7 91 91 ESE 6 9 30.08 1019 9 14 0.00 0.00
8:53 am 08:53 Sunny 78 25.6 73 22.8 85 85 SE 7 11 30.08 1019 10 16 0.00 0.00
9:53 am 09:53 Sunny 82 27.8 74 23.3 77 77 SE 9 15 30.08 1019 10 16 0.00 0.00
10:53 am 10:53 Mostly Sunny 82 27.8 74 23.3 77 77 SE 7 11 30.08 1019 10 16 0.00 0.00
11:53 am 11:53 Partly Cloudy 84 28.9 73 22.8 70 70 SSE 7 11 30.09 1019 10 16 0.00 0.00
12:53 pm 12:53 Sunny 86 30 73 22.8 65 65 SE 7 11 30.07 1018 10 16 0.00 0.00
1:53 pm 13:53 Mostly Sunny 86 30 73 22.8 65 65 SSE 3 6 30.07 1018 10 16 0.00 0.00
2:53 pm 14:53 Mostly Cloudy 86 30 73 22.8 65 65 S 7 11 30.05 1018 10 16 0.00 0.00
3:53 pm 15:53 Partly Cloudy 88 31.1 72 22.2 59 59 SSE 9 15 30.04 1017 10 16 0.00 0.00
4:53 pm 16:53 Sunny 86 30 73 22.8 65 65 S 8 13 30.05 1018 10 16 0.00 0.00
5:53 pm 17:53 Sunny 87 30.6 74 23.3 65 65 SSE 10 17 30.04 1017 10 16 0.00 0.00
6:53 pm 18:53 Sunny 84 28.9 72 22.2 67 67 SSE 9 15 30.05 1018 10 16 0.00 0.00
7:53 pm 19:53 Sunny 81 27.2 72 22.2 74 74 SSE 9 15 30.07 1018 10 16 0.00 0.00
8:53 pm 20:53 Clear 77 25 73 22.8 88 88 S 6 9 30.07 1018 10 16 0.00 0.00
9:53 pm 21:53 Clear 76 24.4 72 22.2 88 88 SSE 5 7 30.08 1019 10 16 0.00 0.00
10:53 pm 22:53 Clear 75 23.9 73 22.8 94 94 SSE 3 6 30.09 1019 10 16 0.00 0.00
11:53 pm 23:53 Clear with Light Rain 75 23.9 73 22.8 94 94 Calm 30.09 1019 10 16 0.00 0.03

Powered by AerisWeather